カタログに戻る

BREEZE-M DEB

TANK

運用中HEO
NORAD 38344·DEBRIS·🇷🇺 Russia

打ち上げ May 17, 2012 から Baikonur Cosmodrome

Loading…

次のパス (今後24時間)

TLE

最新Source: Space-Track

元期: Sep 13, 2026, 23:35 UTC

1 38344U 12026C   26256.98302411  .00004607  00000-0  10199-2 0  9991
2 38344  49.3144 261.2507 6163526 298.7485  13.3160  3.79772047184973

AllMySatでBREEZE-M DEBをリアルタイム追跡

Download on the App Store